This is the latest recevied weather packets stored in our database for station/object KF7SOJ. If no packets are shown the sender has not sent any weather packets the latest 10 day(s).
| Time | Temp. | Humidity | Pressure | Rain* | Wind** | Luminosity | Snow |
|---|---|---|---|---|---|---|---|
| 1777937074 | 13.33° C | 38% | 929.3 hPa | 0 mm | - | 130 W/m² | - |
| 1777936771 | 12.78° C | 38% | 929.4 hPa | 0 mm | - | 198 W/m² | - |
| 1777936467 | 12.78° C | 37% | 929.4 hPa | 0 mm | - | 145 W/m² | - |
| 1777936164 | 12.78° C | 38% | 929.4 hPa | 0 mm | - | 170 W/m² | - |
| 1777935861 | 12.78° C | 39% | 929.5 hPa | 0 mm | - | 196 W/m² | - |
| 1777935560 | 12.78° C | 38% | 929.5 hPa | 0 mm | - | 167 W/m² | - |
| 1777935256 | 12.78° C | 37% | 929.7 hPa | 0 mm | - | 202 W/m² | - |
| 1777934954 | 12.78° C | 38% | 929.4 hPa | 0 mm | - | 182 W/m² | - |
| 1777934650 | 12.78° C | 39% | 929.5 hPa | 0 mm | - | 164 W/m² | - |
| 1777934347 | 12.78° C | 38% | 929.6 hPa | 0 mm | - | 159 W/m² | - |
| 1777934042 | 12.78° C | 38% | 929.7 hPa | 0 mm | - | 185 W/m² | - |
| 1777933739 | 12.78° C | 37% | 929.7 hPa | 0 mm | - | 182 W/m² | - |
| 1777933436 | 12.78° C | 37% | 929.8 hPa | 0 mm | - | 208 W/m² | - |
| 1777933134 | 12.78° C | 37% | 929.7 hPa | 0 mm | - | 169 W/m² | - |
| 1777932830 | 12.78° C | 37% | 929.7 hPa | 0 mm | - | 202 W/m² | - |
| 1777932528 | 12.78° C | 36% | 929.7 hPa | 0 mm | - | 188 W/m² | - |
| 1777932224 | 13.33° C | 37% | 929.8 hPa | 0 mm | - | 224 W/m² | - |
| 1777931922 | 12.78° C | 36% | 929.7 hPa | 0 mm | - | 343 W/m² | - |
| 1777931618 | 13.33° C | 35% | 929.7 hPa | 0 mm | - | 354 W/m² | - |
| 1777931314 | 13.33° C | 37% | 929.8 hPa | 0 mm | - | 405 W/m² | - |
| 1777931011 | 13.33° C | 37% | 929.6 hPa | 0 mm | - | 513 W/m² | - |
| 1777930708 | 13.33° C | 37% | 929.9 hPa | 0 mm | - | 353 W/m² | - |
| 1777930404 | 12.78° C | 36% | 930 hPa | 0 mm | - | 374 W/m² | - |
| 1777930101 | 12.78° C | 38% | 930 hPa | 0 mm | - | 312 W/m² | - |
| 1777929797 | 12.78° C | 38% | 930 hPa | 0 mm | - | 268 W/m² | - |
* Rain latest hour (hover to see other rain measurements)
** Current wind speed in m/s (hover to see current wind gust speed)